{"data":{"norad_id":82741,"epoch":"2026-05-23T12:19:36.005088Z","epoch_age_seconds":203205,"freshness":"STALE","line1":"1 82741U          26143.51361117  .00002547  00000+0  27489-2 0  9992","line2":"2 82741 102.8427 236.1065 0197004 262.3938  95.4779 13.66760009619178","mean_motion":13.66760009,"eccentricity":0.0197004,"inclination_deg":102.8427,"raan_deg":236.1065,"arg_perigee_deg":262.3938,"mean_anomaly_deg":95.4779,"bstar":0.0027489,"rev_number":61917,"period_min":105.3586577393,"perigee_km":865.65255445485,"apogee_km":1156.7993665898,"semimajor_km":7389.3629605222995,"source":"CELESTRAK","updated_at":"2026-05-25T13:38:11.195007Z"}}